Location: Castelnau
(43.6639°N, 0.8431°W)
Time: 22:17:14
(UTC+00:00)

Nadezhda 3 Rocket - Pass Details

Date: 13 January 2026
Orbit: 956 x 998 km, 82.9° (Epoch: 10 February)

Event Time Altitude Azimuth Distance (km) Brightness Sun altitude
Rises 06:51:51 0° 345° (NNW) 3,670 6.6 -7.8°
Reaches altitude 10° 06:54:29 10° 338° (NNW) 2,725 5.9 -7.4°
Maximum altitude 07:00:14 41° 271° (W) 1,396 4.4 -6.4°
Drops below altitude 10° 07:06:01 10° 204° (SSW) 2,735 6.4 -5.5°
Sets 07:08:41 0° 197° (SSW) 3,684 7.1 -5.0°
